Location: Castiglione Fibocchi
(43.5333°N, 11.7667°E)
Time: 14:08:38
(UTC+00:00)

deb Chang Zheng 4 - Pass Details

Date: 15 August 2020
Orbit: 604 x 625 km, 98.6° (Epoch: 24 September)

Event Time Altitude Azimuth Distance (km) Brightness Sun altitude
Rises 03:43:52 0° 11° (N) 2,918 7.6 -6.5°
Reaches altitude 10° 03:46:04 10° 10° (N) 2,008 6.7 -6.2°
Maximum altitude 03:50:25 72° 287° (WNW) 663 3.6 -5.5°
Drops below altitude 10° 03:54:44 10° 203° (SSW) 1,993 5.7 -4.7°
Sets 03:56:55 0° 201° (SSW) 2,895 6.6 -4.4°
